[[{"header":{"parameterUnit":"m.s-1","parameterCategory":1,"la1":30.2991,"la2":30.254,"lo1":-89.0895,"lo2":-89.0444,"dy":0.0017,"dx":0.0017,"nx":28,"ny":28,"refTime":"2024-08-16T21:00:00:Z","depth":0,"parameterNumber":2,"parameterNumberName":"U-component_of_WINDS"},"data":[0,0,0,0,0,0,0,0,0,0,0,0,0,0,0,0,0,0,0,0,0,0,0,0,0,0,0,0,0,0,0,0,0,0,0,0,0,0,0,0,0,0,0,0,0,0,0,0,0,0,0,0,0,0,0,0,0,0,2.1866,2.1867,0,2.1959,2.196,2.1961,2.1977,2.1977,2.1976,2.1975,2.2068,2.2071,2.2074,0,0,0,0,0,0,0,0,0,0,0,0,0,2.1698,2.1701,2.1866,2.1867,2.1868,2.1959,2.196,2.1961,2.1978,2.1977,2.1976,2.1975,2.2067,2.207,2.2074,0,0,0,0,0,0,0,0,0,0,0,0,0,2.1779,2.1702,2.1866,2.1887,2.189,2.1959,2.196,2.1962,2.1978,2.1977,2.1975,2.1974,2.2065,2.207,2.2075,2.2127,0,0,2.2089,2.2091,0,0,0,0,0,0,0,0,2.1775,2.1785,2.1883,2.1886,2.1889,2.1956,2.1935,2.2017,2.1978,2.1944,2.1975,2.1974,2.2031,2.2039,2.2058,2.2131,2.2135,2.209,2.2092,2.2094,2.2096,0,0,0,0,0,0,0,2.1769,2.1781,2.1903,2.1884,2.1888,2.1891,2.1901,2.195,2.1993,2.1947,2.1949,2.196,2.2032,2.2054,2.2061,2.2137,2.2089,2.2094,2.2097,2.2098,2.2254,2.2255,0,0,0,0,0,0,2.176,2.1777,2.19,2.1905,2.1828,2.1895,2.1906,2.1935,2.1992,2.2,2.1961,2.196,2.2046,2.2055,2.2064,2.2127,2.2094,2.2099,2.2102,2.2253,2.2254,2.2255,0,0,0,0,0,0,2.1756,2.1771,2.1896,2.1842,2.1858,2.1899,2.1932,2.1938,2.1959,2.2003,2.201,2.1975,2.2046,2.2057,2.2111,2.213,2.2101,2.2105,2.2251,2.2253,2.2255,2.2254,0,0,0,0,0,0,2.1751,2.1769,2.1791,2.1842,2.1861,2.1942,2.1933,2.194,2.1968,2.1968,2.2018,2.2025,2.2046,2.2103,2.2115,2.2136,2.2109,2.2249,2.2252,2.2254,2.2253,2.2256,2.2259,0,0,0,0,0,2.1745,2.1787,2.1792,2.1807,2.1888,2.1944,2.1954,2.1978,2.1969,2.199,2.2017,2.2023,2.2127,2.2109,2.2122,2.2145,2.2248,2.2251,2.2254,2.2251,2.2255,2.2259,0,0,0,0,0,0,2.1737,2.1794,2.18,2.186,2.1897,2.1946,2.1974,2.1982,2.2021,2.202,2.2047,2.2058,2.2109,2.2133,2.2112,2.2197,2.2187,2.2192,2.218,2.2184,2.2187,2.2179,2.2113,0,0,0,0,0,2.1742,2.1783,2.1831,2.1879,2.1897,2.1932,2.1957,2.1972,2.2011,2.2026,2.2058,2.2094,2.2135,2.2161,2.2201,2.2256,2.2266,2.2278,2.2281,2.2284,2.2288,2.2316,2.2322,2.2265,2.2265,2.2265,0,0,2.1753,2.1789,2.1814,2.1878,2.1908,2.1948,2.1945,2.1988,2.2018,2.2033,2.2085,2.2109,2.2151,2.2205,2.2231,2.2226,2.2306,2.2287,2.2289,2.2292,2.232,2.2325,2.233,2.2267,2.2266,2.2266,0,0,2.1793,2.1826,2.1868,2.1898,2.1944,2.1967,2.1977,2.2025,2.2042,2.2095,2.2106,2.2141,2.221,2.2239,2.2263,2.2312,2.2318,2.2324,2.2339,2.2367,2.2371,2.2375,2.2391,2.2396,2.2329,2.2329,2.2329,0,2.18,2.1863,2.1888,2.1931,2.1958,2.1973,2.2015,2.2043,2.2099,2.2116,2.2111,2.2197,2.2227,2.2287,2.2299,2.2318,2.2329,2.2318,2.2369,2.2373,2.2377,2.2392,2.2398,2.2329,2.2329,2.2329,2.2329,0,2.1868,2.1911,2.1939,2.1993,2.2024,2.2066,2.2096,2.2123,2.2135,2.2158,2.221,2.2246,2.2292,2.2308,2.232,2.2369,2.2364,2.2364,2.2353,2.2383,2.2397,2.2403,2.2329,2.2329,2.2329,2.2329,0,0,2.1905,2.1972,2.1982,2.2006,2.2057,2.209,2.2131,2.2177,2.2199,2.2237,2.2271,2.2328,2.2328,2.2355,2.237,2.2395,2.2428,2.2391,2.2392,2.2395,2.2481,2.248,2.2486,2.2433,2.2434,2.2435,2.2477,0,2.195,2.2025,2.2049,2.2112,2.215,2.2164,2.22,2.2234,2.2256,2.2291,2.2315,2.2355,2.2352,2.2368,2.2393,2.2419,2.2445,2.2416,2.2463,2.2464,2.245,2.2494,2.2493,2.2531,2.2483,2.2484,2.2484,0,2.2012,2.2051,2.2117,2.2161,2.2178,2.221,2.2253,2.2287,2.2325,2.2339,2.2368,2.2381,2.2423,2.2411,2.2468,2.2448,2.2468,2.2483,2.2485,2.2489,2.2475,2.2497,2.2544,2.2549,2.2494,2.2493,2.2492,0,2.2029,2.2098,2.2147,2.2167,2.222,2.2242,2.2265,2.2302,2.2327,2.2364,2.238,2.2422,2.2444,2.2474,2.2497,2.2487,2.2551,2.2542,2.2563,2.2562,2.2575,2.2573,2.2623,2.259,2.259,2.259,2.259,0,2.2076,2.2115,2.2155,2.2184,2.2228,2.2254,2.2296,2.232,2.2353,2.2385,2.2401,2.2431,2.246,2.2494,2.2512,2.2555,2.2566,2.2577,2.2581,2.2575,2.2573,2.2587,2.2585,2.2592,2.2591,2.2591,2.2591,0,2.2102,2.2131,2.2184,2.223,2.2242,2.2273,2.2311,2.2339,2.2361,2.2403,2.2414,2.2448,2.2488,2.2515,2.2566,2.2578,2.2624,2.2629,2.2611,2.2613,2.2632,2.2629,2.2692,2.27,2.2663,2.2663,2.2663,0,2.2129,2.216,2.2209,2.2232,2.2256,2.2293,2.2319,2.2345,2.2371,2.2416,2.2438,2.2479,2.2513,2.2576,2.2605,2.2644,2.2648,2.2667,2.2654,2.2646,2.2646,2.2643,2.2645,2.2669,2.2669,2.267,2.267,0,2.2173,2.2185,2.2222,2.2264,2.2294,2.2328,2.2361,2.2379,2.2411,2.2439,2.248,2.2507,2.2559,2.2599,2.264,2.2662,2.267,2.2674,2.268,2.2673,2.2661,2.2666,2.2615,2.2672,2.2672,2.2672,2.2671,2.2671,2.2199,2.2226,2.2265,2.2305,2.2333,2.2364,2.2392,2.2417,2.2452,2.2497,2.251,2.2552,2.2588,2.2644,2.2667,2.2699,2.2697,2.2707,2.2709,2.2711,2.271,2.2657,2.2707,2.2707,2.2707,2.2707,2.2707,0,2.2242,2.2267,2.2304,2.235,2.2381,2.2388,2.2425,2.245,2.2487,2.252,2.2553,2.2599,2.2638,2.2669,2.2708,2.2728,2.2733,2.2738,2.2736,2.274,2.2711,2.27,2.2733,2.2733,2.2733,2.2733,2.2733,2.2733,2.2268,2.2313,2.233,2.2388,2.2413,2.2455,2.2476,2.2503,2.2529,2.2581,2.2613,2.2633,2.2665,2.2706,2.2741,2.2749,2.2762,2.2765,2.2774,2.2745,2.2742,2.274,2.273,2.2768,2.2768,2.2801,2.2801,2.2801]},{"header":{"parameterUnit":"m.s-1","parameterCategory":1,"la1":30.2991,"la2":30.254,"lo1":-89.0895,"lo2":-89.0444,"dy":0.0017,"dx":0.0017,"nx":28,"ny":28,"refTime":"2024-08-16T21:00:00:Z","depth":0,"parameterNumber":3,"parameterNumberName":"V-component_of_WINDS"},"data":[0,0,0,0,0,0,0,0,0,0,0,0,0,0,0,0,0,0,0,0,0,0,0,0,0,0,0,0,0,0,0,0,0,0,0,0,0,0,0,0,0,0,0,0,0,0,0,0,0,0,0,0,0,0,0,0,0,0,4.3082,4.3082,0,4.3093,4.3094,4.3094,4.3029,4.3027,4.3025,4.3024,4.3034,4.3036,4.3038,0,0,0,0,0,0,0,0,0,0,0,0,0,4.3001,4.3003,4.3082,4.3082,4.3082,4.3093,4.3094,4.3094,4.3029,4.3027,4.3025,4.3023,4.3033,4.3035,4.3038,0,0,0,0,0,0,0,0,0,0,0,0,0,4.3027,4.3004,4.3082,4.3052,4.3049,4.3093,4.3094,4.3094,4.303,4.3027,4.3024,4.3022,4.3032,4.3035,4.3038,4.3112,0,0,4.3047,4.3049,0,0,0,0,0,0,0,0,4.3026,4.303,4.3056,4.3054,4.3051,4.3057,4.3069,4.31,4.3031,4.3037,4.3024,4.302,4.3044,4.3046,4.3054,4.3112,4.3113,4.3048,4.3049,4.3051,4.3052,0,0,0,0,0,0,0,4.3024,4.3029,4.3086,4.3056,4.3053,4.3036,4.3037,4.3074,4.3056,4.3036,4.3032,4.3034,4.3042,4.3051,4.3053,4.3113,4.3047,4.305,4.3052,4.3053,4.323,4.3233,0,0,0,0,0,0,4.3027,4.3028,4.3086,4.3087,4.3031,4.304,4.3041,4.3058,4.3055,4.3052,4.3036,4.3031,4.3047,4.305,4.3054,4.3138,4.3051,4.3053,4.3055,4.3227,4.3231,4.3234,0,0,0,0,0,0,4.3025,4.3032,4.3086,4.3056,4.3062,4.3044,4.3064,4.3059,4.3069,4.3055,4.3051,4.3049,4.3045,4.3049,4.3097,4.3137,4.3055,4.3057,4.3224,4.3228,4.3232,4.3308,0,0,0,0,0,0,4.3023,4.3032,4.3061,4.3057,4.3064,4.313,4.3067,4.3062,4.3074,4.3067,4.3066,4.3063,4.3043,4.3093,4.31,4.314,4.306,4.322,4.3226,4.3231,4.3302,4.3314,4.3325,0,0,0,0,0,4.302,4.3082,4.3063,4.307,4.3099,4.3133,4.3136,4.3112,4.3078,4.3105,4.3096,4.3063,4.3132,4.3099,4.3106,4.3147,4.3217,4.3224,4.3231,4.3296,4.3312,4.3325,0,0,0,0,0,0,4.309,4.3081,4.3059,4.3122,4.3129,4.3122,4.3156,4.3129,4.3146,4.3139,4.3108,4.3108,4.3161,4.3159,4.3122,4.3217,4.3169,4.3177,4.3216,4.3231,4.3242,4.324,4.3062,0,0,0,0,0,4.3113,4.3142,4.3132,4.3188,4.3192,4.3174,4.3188,4.3169,4.3174,4.3177,4.3171,4.3177,4.32,4.3215,4.3236,4.3302,4.3299,4.3333,4.3345,4.3354,4.3361,4.3394,4.3408,4.3255,4.3255,4.3255,0,0,4.316,4.3159,4.3179,4.3202,4.3205,4.3234,4.3177,4.3211,4.3232,4.3181,4.3226,4.3222,4.3227,4.3284,4.3309,4.3284,4.3403,4.3363,4.3371,4.3372,4.3402,4.3417,4.3429,4.326,4.3259,4.3258,0,0,4.326,4.3263,4.3309,4.3313,4.3318,4.3305,4.3316,4.3313,4.3309,4.3353,4.3315,4.334,4.338,4.3384,4.3392,4.3492,4.3462,4.35,4.356,4.3592,4.3604,4.3615,4.3648,4.3661,4.3507,4.3508,4.3508,0,4.3318,4.3361,4.3335,4.3371,4.3382,4.3338,4.3383,4.3388,4.3399,4.3407,4.338,4.3428,4.3428,4.3484,4.3509,4.3517,4.3527,4.3499,4.3605,4.3615,4.3624,4.3656,4.3669,4.3512,4.3512,4.3511,4.3511,0,4.343,4.3461,4.3497,4.3509,4.3523,4.3564,4.3543,4.3561,4.3541,4.353,4.3575,4.3574,4.3592,4.3604,4.3585,4.3657,4.3641,4.361,4.356,4.3644,4.3673,4.3685,4.3518,4.3517,4.3516,4.3514,0,0,4.3575,4.3571,4.3584,4.3588,4.359,4.3613,4.3651,4.3669,4.3683,4.3693,4.3723,4.3757,4.3728,4.3736,4.3717,4.3746,4.3823,4.371,4.371,4.3729,4.39,4.3922,4.3936,4.3803,4.3805,4.3807,4.3899,0,4.367,4.3735,4.3712,4.3777,4.3804,4.3762,4.3795,4.3799,4.3791,4.3811,4.3802,4.3826,4.3786,4.3791,4.3817,4.3808,4.3856,4.3801,4.3829,4.383,4.3827,4.3952,4.3976,4.4062,4.391,4.3912,4.3913,0,4.3791,4.3805,4.3873,4.3868,4.3878,4.3908,4.3922,4.3943,4.3946,4.3938,4.3947,4.3921,4.3957,4.3909,4.3956,4.3919,4.3929,4.3927,4.3929,4.3929,4.3875,4.3953,4.4089,4.4101,4.3932,4.393,4.3929,0,4.3886,4.3922,4.3966,4.3971,4.3968,4.399,4.3989,4.399,4.4002,4.4014,4.402,4.4037,4.4045,4.4058,4.4037,4.4004,4.4087,4.4037,4.4079,4.408,4.4097,4.4096,4.4234,4.4107,4.4107,4.4107,4.4107,0,4.3995,4.4037,4.4009,4.4036,4.4082,4.4055,4.4101,4.4096,4.4097,4.4121,4.4087,4.4111,4.4083,4.4104,4.4087,4.4128,4.4133,4.4126,4.412,4.4128,4.4128,4.4132,4.4125,4.411,4.411,4.4109,4.4108,0,4.4108,4.4091,4.4136,4.4129,4.4129,4.4163,4.4156,4.418,4.4169,4.4201,4.4207,4.4189,4.4212,4.4192,4.4214,4.4203,4.4257,4.4244,4.4255,4.4251,4.4293,4.4289,4.4437,4.4455,4.4319,4.432,4.4321,0,4.4177,4.4209,4.4205,4.4219,4.4221,4.4244,4.4255,4.423,4.4243,4.4249,4.4272,4.4292,4.4306,4.4344,4.4333,4.4349,4.4335,4.4386,4.4337,4.4343,4.4333,4.4331,4.4333,4.4396,4.4397,4.4399,4.44,0,4.4301,4.4291,4.4309,4.4324,4.4338,4.4349,4.4356,4.437,4.4344,4.436,4.4383,4.4394,4.4416,4.4435,4.4448,4.4446,4.4418,4.4415,4.4425,4.4432,4.4436,4.4432,4.428,4.4412,4.441,4.4409,4.4409,4.4408,4.4393,4.4418,4.4419,4.4439,4.4442,4.445,4.4472,4.4463,4.4482,4.4497,4.4482,4.4509,4.451,4.4524,4.4526,4.4546,4.4524,4.454,4.4543,4.4547,4.4552,4.4435,4.4549,4.4548,4.4548,4.4547,4.4547,0,4.4513,4.4511,4.453,4.4542,4.4558,4.4531,4.4537,4.4552,4.4576,4.458,4.4594,4.4619,4.4638,4.4628,4.4644,4.4662,4.4649,4.4667,4.4664,4.4664,4.4571,4.456,4.4676,4.4676,4.4676,4.4676,4.4676,4.4676,4.4577,4.4617,4.4607,4.4648,4.4646,4.4672,4.4678,4.4684,4.4687,4.4716,4.4731,4.4725,4.4723,4.4738,4.4753,4.475,4.4756,4.4778,4.477,4.4683,4.467,4.4658,4.4647,4.478,4.478,4.486,4.4861,4.4861]}]]